Tracking 18984 objects as of 24-Feb-2018
HD Live streaming from Space Station
objects crossing your sky now

FENGYUN 1C DEB

Track FENGYUN 1C DEB now!
10-day predictions


NORAD ID: 37908
Int'l Code: 1999-025ENH
Perigee: 742.8 km
Apogee: 862.0 km
Inclination: 99.2 °
Period: 100.8 minutes
Semi major axis: 7173 km
RCS: 0.0082 m2 (small)
Launch date: May 10, 1999
Source: People's Republic of China (PRC)
Launch site: Taiyaun Space Center, China (TSC)

Note: This is SATELLITE DEBRIS
aabbcc
Your satellite tracking list
Your tracking list is empty




NASA's NSSDC Master Catalog

Two Line Element Set (TLE):
1 37908U 99025ENH 18050.83285959 +.00000190 +00000-0 +90801-4 0  9997
2 37908 099.1550 267.8768 0083023 145.0883 215.5781 14.28944233232597
Source of the keplerian elements: AFSPC